Des Moines, IA

7:21 PM CST on January 22, 2017 (GMT -0600)
Des Moines International

Weather History for KDSM - June, 2012

Change the Weather History Date:

Friday, June 29, 2012

  Actual Average Record
Temperature  
Mean Temperature 83 °F 75 °F  
Max Temperature 93 °F 85 °F 100 °F (1936)
Min Temperature 72 °F 66 °F 50 °F (1923)
Degree Days  
Heating Degree Days 0 0  
Month to date heating degree days 6 14  
Since 1 June heating degree days 6 14  
Since 1 July heating degree days 4697 6199  
Cooling Degree Days 18 10  
Month to date cooling degree days 318 209  
Year to date cooling degree days 526 285  
Since 1 June cooling degree days 318 209  
Growing Degree Days 33 (Base 50)    
Moisture  
Dew Point 68 °F    
Average Humidity 69    
Maximum Humidity 87    
Minimum Humidity 51    
Precipitation  
Precipitation 0.27 in 0.16 in 3.32 in (1986)
Month to date precipitation 2.17 4.78  
Year to date precipitation 15.15 17.96  
Snow  
Snow 0.00 in 0.00 in - ()
Month to date snowfall 0.0 0.0  
Since 1 June snowfall 0.0 0.0  
Since 1 July snowfall 20.9 35.3  
Snow Depth 0.00 in    
Sea Level Pressure  
Sea Level Pressure 29.83 in    
Wind  
Wind Speed 6 mph (East)    
Max Wind Speed 36 mph    
Max Gust Speed 45 mph    
Visibility 9 miles    
Events Rain , Thunderstorm    
T = Trace of Precipitation, MM = Missing Value Source: NWS Daily Summary

Daily Weather History Graph

Daily Weather History Graph

Search for Another Location

Airport or City:

Trip Planner

Search our weather history database for the weather conditions in past years. The results will help you decide how hot, cold, wet, or windy it might be!

Date:

Astronomy

Jun. 29, 2012 Rise Set
Actual Time 5:43 AM CDT 8:52 PM CDT
Civil Twilight 5:09 AM CDT 9:26 PM CDT
Nautical Twilight 4:26 AM CDT 10:09 PM CDT
Astronomical Twilight 3:34 AM CDT 11:01 PM CDT
Moon 4:38 PM CDT (6/29) 1:56 AM CDT (6/29)
Length of Visible Light 16h 16m
Length of Day
15h 08m
Waxing Gibbous, 78% of the Moon is Illuminated
Jun 29
Waxing Gibbous
Jul 3
Full
Jul 10
Last Quarter
Jul 18
New
Jul 26
First Quarter

Hourly Weather History & Observations

Time (CDT) Temp. Heat Index Dew Point Humidity Pressure Visibility Wind Dir Wind Speed Gust Speed Precip Events Conditions
12:54 AM 82.0 °F 83.1 °F 63.0 °F 52% 29.86 in 10.0 mi ENE 5.8 mph - N/A   Clear
1:54 AM 81.0 °F 82.2 °F 63.0 °F 54% 29.86 in 10.0 mi East 5.8 mph - N/A   Scattered Clouds
2:54 AM 81.0 °F 82.2 °F 63.0 °F 54% 29.86 in 10.0 mi East 5.8 mph - N/A   Overcast
3:54 AM 80.1 °F 81.5 °F 63.0 °F 56% 29.85 in 10.0 mi ENE 3.5 mph - N/A   Mostly Cloudy
4:54 AM 79.0 °F - 61.0 °F 54% 29.84 in 10.0 mi East 6.9 mph - N/A   Overcast
5:17 AM 78.8 °F - 60.8 °F 54% 29.88 in 10.0 mi East 4.6 mph - 0.00 in Rain , Thunderstorm Light Thunderstorms and Rain
5:54 AM 77.0 °F - 62.1 °F 60% 29.86 in 10.0 mi SSW 6.9 mph - 0.00 in Rain , Thunderstorm Light Thunderstorms and Rain
6:54 AM 75.9 °F - 68.0 °F 76% 29.87 in 6.0 mi SSE 6.9 mph - 0.03 in Rain , Thunderstorm Light Thunderstorms and Rain
7:17 AM 75.2 °F - 69.8 °F 83% 29.89 in 10.0 mi NE 3.5 mph - 0.00 in Rain Light Rain
7:54 AM 75.0 °F - 69.1 °F 82% 29.84 in 10.0 mi NE 3.5 mph - 0.00 in   Overcast
8:54 AM 75.9 °F - 70.0 °F 82% 29.82 in 9.0 mi East 5.8 mph - 0.00 in   Overcast
9:54 AM 80.1 °F 83.8 °F 72.0 °F 76% 29.83 in 9.0 mi SSE 8.1 mph - N/A   Overcast
10:54 AM 84.0 °F 89.6 °F 72.0 °F 67% 29.85 in 8.0 mi WNW 6.9 mph - N/A   Overcast
11:54 AM 90.0 °F 96.9 °F 72.0 °F 55% 29.82 in 10.0 mi SSW 6.9 mph - N/A   Overcast
12:54 PM 93.0 °F 103.2 °F 73.9 °F 54% 29.81 in 10.0 mi SSW 4.6 mph - N/A   Overcast
1:54 PM 91.9 °F 100.7 °F 73.0 °F 54% 29.81 in 10.0 mi South 8.1 mph - N/A   Overcast
2:54 PM 91.0 °F 97.6 °F 71.1 °F 52% 29.79 in 10.0 mi South 6.9 mph - N/A   Overcast
3:15 PM 89.6 °F 96.2 °F 71.6 °F 55% 29.86 in 10.0 mi West 12.7 mph - N/A Thunderstorm Thunderstorm
3:34 PM 80.6 °F 85.4 °F 73.4 °F 79% 29.87 in 2.0 mi NW 23.0 mph 44.9 mph 0.00 in Rain , Thunderstorm Thunderstorms and Rain
3:54 PM 73.9 °F - 69.1 °F 85% 29.80 in 4.0 mi North 21.9 mph 32.2 mph 0.15 in Rain , Thunderstorm Heavy Thunderstorms and Rain
4:39 PM 75.2 °F - 69.8 °F 83% 29.83 in 1.8 mi SE 17.3 mph 20.7 mph 0.06 in Rain , Thunderstorm Heavy Thunderstorms and Rain
4:44 PM 73.4 °F - 69.8 °F 88% 29.83 in 6.0 mi Variable 5.8 mph 20.7 mph 0.08 in Rain , Thunderstorm Light Thunderstorms and Rain
4:54 PM 75.0 °F - 66.9 °F 76% 29.78 in 10.0 mi ENE 12.7 mph 18.4 mph 0.08 in Rain Light Rain
5:18 PM 73.4 °F - 69.8 °F 88% 29.81 in 10.0 mi NE 15.0 mph - 0.01 in Thunderstorm Thunderstorm
5:43 PM 75.2 °F - 69.8 °F 83% 29.81 in 10.0 mi NE 10.4 mph - 0.01 in Rain Light Rain
5:54 PM 77.0 °F - 70.0 °F 79% 29.78 in 10.0 mi East 5.8 mph - 0.01 in   Mostly Cloudy
6:54 PM 78.1 °F - 68.0 °F 71% 29.78 in 10.0 mi NE 6.9 mph - N/A   Partly Cloudy
7:54 PM 77.0 °F - 66.9 °F 71% 29.79 in 10.0 mi ESE 3.5 mph - N/A   Partly Cloudy
8:54 PM 75.9 °F - 68.0 °F 76% 29.79 in 10.0 mi Calm Calm - N/A   Partly Cloudy
9:54 PM 75.0 °F - 66.9 °F 76% 29.81 in 10.0 mi Calm Calm - N/A   Partly Cloudy
10:54 PM 73.9 °F - 69.1 °F 85% 29.80 in 10.0 mi ENE 3.5 mph - N/A   Partly Cloudy
11:54 PM 73.0 °F - 68.0 °F 84% 29.80 in 10.0 mi Calm Calm - N/A   Partly Cloudy